Location: Ku?niki
(51.4449°N, 17.8974°E)
Time: 19:10:21
(UTC+00:00)

MetOp-B - Pass Details

Date: 18 September 2020
Orbit: 819 x 821 km, 98.7° (Epoch: 22 October)

Event Time Altitude Azimuth Distance (km) Brightness Sun altitude
Exits shadow 19:41:03 55° 181° (S) 985 4.3 -24.7°
Maximum altitude 19:42:16 79° 255° (WSW) 841 4.1 -24.9°
Drops below altitude 10° 19:47:39 10° 343° (NNW) 2,429 7.3 -25.5°
Sets 19:50:01 0° 344° (NNW) 3,365 8.2 -25.8°
